Date,TemperatureHighF,TemperatureAvgF,TemperatureLowF,DewpointHighF,DewpointAvgF,DewpointLowF,HumidityHigh,HumidityAvg,HumidityLow,PressureMaxIn,PressureMinIn,WindSpeedMaxMPH,WindSpeedAvgMPH,GustSpeedMaxMPH,PrecipitationSumIn
2013-9-1,57,53,49,-100,-100,-100,0,0,100,0.00,40.00,0,-999,0,0.00
2013-9-2,59,57,54,-100,-100,-100,0,0,100,0.00,40.00,0,-999,0,0.00
2013-9-3,59,57,54,-100,-100,-100,0,0,100,0.00,40.00,0,-999,0,0.00
2013-9-4,56,53,50,-100,-100,-100,0,0,100,0.00,40.00,0,-999,0,0.00
2013-9-5,57,54,52,-100,-100,-100,0,0,100,0.00,40.00,0,-999,0,0.00
2013-9-6,55,50,48,-100,-100,-100,0,0,100,0.00,40.00,0,-999,0,0.00
2013-9-7,54,52,50,-100,-100,-100,0,0,100,0.00,40.00,0,-999,0,0.00
2013-9-8,56,52,50,-100,-100,-100,0,0,100,0.00,40.00,0,-999,0,0.00
2013-9-9,56,53,49,-100,-100,-100,0,0,100,0.00,40.00,0,-999,0,0.00
2013-9-10,56,54,51,-100,-100,-100,0,0,100,0.00,40.00,0,-999,0,0.00
2013-9-11,53,51,47,-100,-100,-100,0,0,100,0.00,40.00,0,-999,0,0.00
2013-9-12,54,52,49,-100,-100,-100,0,0,100,0.00,40.00,0,-999,0,0.00
2013-9-13,56,52,50,-100,-100,-100,0,0,100,0.00,40.00,0,-999,0,0.00
2013-9-14,52,50,46,-100,-100,-100,0,0,100,0.00,40.00,0,-999,0,0.00
2013-9-15,54,49,45,-100,-100,-100,0,0,100,0.00,40.00,0,-999,0,0.00
2013-9-16,51,44,38,-100,-100,-100,0,0,100,0.00,40.00,0,-999,0,0.00
2013-9-17,50,45,39,-100,-100,-100,0,0,100,0.00,40.00,0,-999,0,0.00
2013-9-18,48,46,45,-100,-100,-100,0,0,100,0.00,40.00,0,-999,0,0.00
2013-9-19,48,42,36,-100,-100,-100,0,0,100,0.00,40.00,0,-999,0,0.00
2013-9-20,47,38,30,-100,-100,-100,0,0,100,0.00,40.00,0,-999,0,0.00
2013-9-21,44,40,36,-100,-100,-100,0,0,100,0.00,40.00,0,-999,0,0.00
2013-9-22,43,40,36,-100,-100,-100,0,0,100,0.00,40.00,0,-999,0,0.00
2013-9-23,44,37,33,-100,-100,-100,0,0,100,0.00,40.00,0,-999,0,0.00
2013-9-24,50,37,28,-100,-100,-100,0,0,100,0.00,40.00,0,-999,0,0.00
2013-9-25,51,47,42,-100,-100,-100,0,0,100,0.00,40.00,0,-999,0,0.00
2013-9-26,50,47,44,-100,-100,-100,0,0,100,0.00,40.00,0,-999,0,0.00
2013-9-27,47,45,43,-100,-100,-100,0,0,100,0.00,40.00,0,-999,0,0.00
2013-9-28,47,43,38,-100,-100,-100,0,0,100,0.00,40.00,0,-999,0,0.00
2013-9-29,45,42,40,-100,-100,-100,0,0,100,0.00,40.00,0,-999,0,0.00
2013-9-30,46,40,33,-100,-100,-100,0,0,100,0.00,40.00,0,-999,0,0.00